Sun, 11 Apr 2021 19:14:23 UTC

Information for RPM brotli-1.0.9-3.fc33.x86_64.rpm

ID23451974
Namebrotli
Version1.0.9
Release3.fc33
Epoch
Archx86_64
SummaryLossless compression algorithm
DescriptionBrotli is a generic-purpose lossless compression algorithm that compresses data using a combination of a modern variant of the LZ77 algorithm, Huffman coding and 2nd order context modeling, with a compression ratio comparable to the best currently available general-purpose compression methods. It is similar in speed with deflate but offers more dense compression.
Build Time2020-10-09 11:42:27 GMT
Size331,744
a79c728189c840541d388d7c92e0ae42
LicenseMIT
Buildrootf33-build-23246730-2219872
Provides
brotli = 1.0.9-3.fc33
brotli(x86-64) = 1.0.9-3.fc33
Obsoletes No Obsoletes
Conflicts No Conflicts
Requires
libbrotli(x86-64) = 1.0.9-3.fc33
libc.so.6()(64bit)
libc.so.6(GLIBC_2.14)(64bit)
libc.so.6(GLIBC_2.2.5)(64bit)
libc.so.6(GLIBC_2.3.4)(64bit)
libc.so.6(GLIBC_2.4)(64bit)
libm.so.6()(64bit)
libm.so.6(GLIBC_2.29)(64bit)
rpmlib(CompressedFileNames) <= 3.0.4-1
rpmlib(FileDigests) <= 4.6.0-1
rpmlib(PayloadFilesHavePrefix) <= 4.0-1
rpmlib(PayloadIsZstd) <= 5.4.18-1
rtld(GNU_HASH)
Recommends No Recommends
Suggests No Suggests
Supplements No Supplements
Enhances No Enhances
Files
1 through 4 of 4
Name ascending sort Size
/usr/bin/brotli772,448
/usr/lib/.build-id0
/usr/lib/.build-id/340
/usr/lib/.build-id/34/cf8df90f4d621f004671bd3b8711d08b453eeb26
Component of
Page:
1 through 50 of 22407 >>>
Buildroot descending sort Created State
f33-build-26693840-3329209 2021-04-11 18:33:02 expired
f33-build-26693607-3329209 2021-04-11 17:27:34 expired
f33-build-26693535-3329209 2021-04-11 16:51:30 expired
f33-build-26693475-3329209 2021-04-11 16:21:12 expired
f33-build-26693186-3329209 2021-04-11 15:35:53 expired
f33-build-26693170-3329209 2021-04-11 15:35:37 expired
f33-build-26693141-3329209 2021-04-11 15:35:04 expired
f33-build-26693109-3329209 2021-04-11 15:34:15 expired
f33-build-26693055-3329209 2021-04-11 15:29:13 expired
f33-build-26693054-3329209 2021-04-11 15:29:10 expired
f33-build-26692402-3329209 2021-04-11 14:48:44 expired
f33-build-26692330-3329209 2021-04-11 14:44:40 expired
f33-build-26692322-3329209 2021-04-11 14:44:31 expired
f33-build-26691768-3329209 2021-04-11 14:17:49 expired
f33-build-26691756-3329209 2021-04-11 14:17:27 expired
f33-build-26691715-3329209 2021-04-11 14:12:33 expired
f33-build-26691714-3329209 2021-04-11 14:12:30 expired
f33-build-26691709-3329209 2021-04-11 14:12:22 expired
f33-build-26691704-3329209 2021-04-11 14:12:13 expired
f33-build-26691701-3329209 2021-04-11 14:12:02 expired
f33-build-26691696-3329209 2021-04-11 14:11:55 expired
f33-build-26691692-3329209 2021-04-11 14:11:49 expired
f33-build-26691690-3329209 2021-04-11 14:11:42 expired
f33-build-26691686-3329209 2021-04-11 14:11:32 expired
f33-build-26691685-3329209 2021-04-11 14:11:30 expired
f33-build-26691681-3329209 2021-04-11 14:11:22 expired
f33-build-26691669-3329209 2021-04-11 14:11:01 expired
f33-build-26691663-3329209 2021-04-11 14:10:57 expired
f33-build-26691662-3329209 2021-04-11 14:10:56 expired
f33-build-26691257-3328480 2021-04-11 13:06:40 expired
f33-build-26691130-3328480 2021-04-11 12:45:09 expired
f33-build-26691128-3328480 2021-04-11 12:45:09 expired
f33-build-26688602-3327914 2021-04-11 10:44:04 expired
f33-build-26688586-3327914 2021-04-11 10:43:50 expired
f33-build-26688533-3327914 2021-04-11 10:24:40 expired
f33-build-26688350-3327914 2021-04-11 10:13:19 expired
f33-build-26687984-3327914 2021-04-11 09:58:38 expired
f33-build-26687967-3327914 2021-04-11 09:57:47 expired
f33-build-26687679-3327914 2021-04-11 09:42:09 expired
f33-build-26687653-3327914 2021-04-11 09:41:32 expired
f33-build-26687647-3327914 2021-04-11 09:41:21 expired
f33-build-26687584-3327914 2021-04-11 09:35:35 expired
f33-build-26687320-3327914 2021-04-11 09:22:02 expired
f33-build-26687163-3326155 2021-04-11 08:07:00 expired
f33-build-26683257-3326155 2021-04-11 05:15:28 expired
f33-build-26682910-3326155 2021-04-11 04:55:32 expired
f33-build-26682784-3326155 2021-04-11 04:35:22 expired
f33-build-26682766-3326155 2021-04-11 04:34:48 expired
f33-build-26682765-3326155 2021-04-11 04:34:43 expired
f33-build-26682761-3326155 2021-04-11 04:34:41 expired